TimeCDT,TemperatureF,Dew PointF,Humidity,Sea Level PressureIn,VisibilityMPH,Wind Direction,Wind SpeedMPH,Gust SpeedMPH,PrecipitationIn,Events,Conditions,WindDirDegrees,DateUTC
12:52 AM,27.0,24.1,89,30.35,10.0,NNW,5.8,-,N/A,,Clear,330,2012-10-28 05:52:00
1:52 AM,26.1,23.0,88,30.35,9.0,NNW,6.9,-,N/A,,Clear,330,2012-10-28 06:52:00
2:52 AM,24.1,21.9,91,30.35,10.0,NNW,5.8,-,N/A,,Clear,340,2012-10-28 07:52:00
3:52 AM,24.1,21.9,91,30.34,10.0,North,4.6,-,N/A,,Clear,350,2012-10-28 08:52:00
4:52 AM,23.0,21.9,96,30.35,9.0,North,4.6,-,N/A,,Clear,360,2012-10-28 09:52:00
5:52 AM,21.9,21.0,96,30.35,9.0,North,5.8,-,N/A,,Clear,10,2012-10-28 10:52:00
6:52 AM,21.9,21.0,96,30.36,9.0,NNE,6.9,-,N/A,,Clear,20,2012-10-28 11:52:00
7:52 AM,21.9,19.9,92,30.36,9.0,NNE,5.8,-,N/A,,Clear,20,2012-10-28 12:52:00
8:52 AM,26.1,23.0,88,30.38,9.0,North,5.8,-,N/A,,Clear,350,2012-10-28 13:52:00
9:52 AM,35.1,27.0,72,30.38,10.0,NNE,4.6,-,N/A,,Clear,20,2012-10-28 14:52:00
10:52 AM,39.9,21.9,49,30.38,10.0,Variable,4.6,-,N/A,,Clear,0,2012-10-28 15:52:00
11:52 AM,41.0,25.0,53,30.37,10.0,Variable,6.9,-,N/A,,Clear,0,2012-10-28 16:52:00
12:52 PM,43.0,24.1,47,30.35,10.0,Calm,Calm,-,N/A,,Clear,0,2012-10-28 17:52:00
1:52 PM,43.0,23.0,45,30.33,10.0,Calm,Calm,-,N/A,,Clear,0,2012-10-28 18:52:00
2:52 PM,44.1,24.1,45,30.32,10.0,Variable,4.6,-,N/A,,Clear,0,2012-10-28 19:52:00
3:52 PM,46.0,23.0,40,30.31,10.0,East,3.5,-,N/A,,Clear,100,2012-10-28 20:52:00
4:52 PM,45.0,21.9,40,30.31,10.0,Calm,Calm,-,N/A,,Clear,0,2012-10-28 21:52:00
5:52 PM,43.0,23.0,45,30.30,10.0,Calm,Calm,-,N/A,,Clear,0,2012-10-28 22:52:00
6:52 PM,39.9,23.0,51,30.31,10.0,Calm,Calm,-,N/A,,Clear,0,2012-10-28 23:52:00
7:52 PM,37.9,24.1,57,30.32,10.0,Calm,Calm,-,N/A,,Clear,0,2012-10-29 00:52:00
8:52 PM,34.0,24.1,67,30.32,5.0,Variable,3.5,-,N/A,,Haze,0,2012-10-29 01:52:00
9:52 PM,34.0,23.0,64,30.33,5.0,North,3.5,-,N/A,,Haze,10,2012-10-29 02:52:00
10:52 PM,32.0,23.0,69,30.33,5.0,NE,3.5,-,N/A,,Haze,50,2012-10-29 03:52:00
11:52 PM,32.0,24.1,73,30.33,6.0,East,5.8,-,N/A,,Haze,80,2012-10-29 04:52:00